This demonstration page uses our WeatherBlox Daily Observations layout. Learn more.

Hourly Observations for October 3, 2018

Temp ( °F °C ) Dew Point ( °F °C ) Humidity (%) Winds ( mph kmh ) Pressure ( in mb ) Visibility ( mi km ) Precip ( " mm )
12:15 am 00:15 Mostly Cloudy 67 19.3 61 16.1 82 82 S 12 19 29.71 1006 10 16.0934 0 0
12:35 am 00:35 Mostly Cloudy 67 19.7 61 16 79 79 S 12 19 29.71 1006 10 16.0934 0 0
12:55 am 00:55 Partly Cloudy 67 19.5 60 15.6 78 78 SSE 12 19 29.68 1005 10 16.0934 0 0
1:15 am 01:15 Clear 67 19.5 60 15.5 78 78 S 14 22 29.68 1005 10 16.0934 0 0
1:35 am 01:35 Clear 68 19.8 60 15.5 76 76 S 15 24 29.65 1004 10 16.0934 0 0
1:55 am 01:55 Clear 68 20 60 15.5 75 75 S 14 22 29.65 1004 10 16.0934 0 0
2:15 am 02:15 Clear 68 20 60 15.6 76 76 S 13 20 29.65 1004 10 16.0934 0 0
2:35 am 02:35 Clear 67 19.7 60 15.7 78 78 S 14 22 29.65 1004 10 16.0934 0 0
2:55 am 02:55 Clear 67 19.6 61 15.9 79 79 S 14 22 29.65 1004 10 16.0934 0 0
3:15 am 03:15 Clear 68 19.8 61 16 79 79 S 13 20 29.62 1003 10 16.0934 0 0
3:35 am 03:35 Clear 67 19.7 61 16.2 80 80 S 13 20 29.62 1003 10 16.0934 0 0
3:55 am 03:55 Clear 68 19.8 61 16.2 80 80 S 15 24 29.62 1003 10 16.0934 0 0
4:15 am 04:15 Clear 68 19.8 61 16.3 80 80 S 16 26 29.62 1003 10 16.0934 0 0
4:35 am 04:35 Clear 67 19.6 61 16.3 81 81 S 14 22 29.62 1003 10 16.0934 0 0
4:55 am 04:55 Clear 67 19.3 61 16.3 83 83 S 10 17 29.62 1003 10 16.0934 0 0
5:15 am 05:15 Clear 66 18.8 61 16.2 85 85 S 10 17 29.59 1002 10 16.0934 0 0
5:35 am 05:35 Clear 65 18.6 61 16.2 86 86 S 10 17 29.59 1002 10 16.0934 0 0
5:55 am 05:55 Clear 65 18.4 61 16.2 87 87 S 10 17 29.59 1002 10 16.0934 0 0
6:15 am 06:15 Clear 65 18.5 61 16.3 87 87 S 12 19 29.59 1002 10 16.0934 0 0
6:35 am 06:35 Clear 66 18.7 62 16.4 87 87 S 12 19 29.59 1002 10 16.0934 0 0
6:55 am 06:55 Clear 65 18.5 61 16.3 87 87 S 13 20 29.56 1001 10 16.0934 0 0
7:15 am 07:15 Clear 65 18.6 62 16.5 88 88 S 12 19 29.56 1001 10 16.0934 0 0
7:35 am 07:35 Clear 65 18.5 62 16.5 88 88 S 14 22 29.56 1001 10 16.0934 0 0
7:55 am 07:55 Sunny 65 18.5 62 16.5 88 88 S 10 17 29.56 1001 10 16.0934 0 0
8:15 am 08:15 Sunny 66 18.7 62 16.5 87 87 SSW 12 19 29.56 1001 10 16.0934 0 0
8:35 am 08:35 Sunny 67 19.3 62 16.8 86 86 SSW 13 20 29.59 1002 10 16.0934 0 0
8:55 am 08:55 Sunny 68 20 63 17.1 83 83 SW 13 20 29.56 1001 10 16.0934 0 0
9:15 am 09:15 Sunny 69 20.7 63 17.2 80 80 SSW 9 15 29.56 1001 10 16.0934 0 0
9:35 am 09:35 Sunny 71 21.5 63 17 76 76 SW 13 20 29.56 1001 10 16.0934 0 0
9:55 am 09:55 Sunny 72 22 62 16.4 71 71 SW 13 20 29.56 1001 10 16.0934 0 0
10:15 am 10:15 Sunny 72 22.3 61 16 68 68 WSW 12 19 29.56 1001 10 16.0934 0 0
10:35 am 10:35 Sunny 74 23.2 61 16 64 64 SW 13 20 29.56 1001 10 16.0934 0 0
10:55 am 10:55 Sunny 75 24 60 15.6 59 59 WSW 10 17 29.56 1001 10 16.0934 0 0
11:15 am 11:15 Sunny 77 25 61 16 57 57 SW 10 17 29.56 1001 10 16.0934 0 0
11:35 am 11:35 Sunny 78 25.8 60 15.6 53 53 SW 8 13 29.56 1001 10 16.0934 0 0
11:55 am 11:55 Sunny 81 27 60 15.8 50 50 SW 8 13 29.56 1001 10 16.0934 0 0
12:15 pm 12:15 Sunny 83 28.2 59 14.8 44 44 WNW 12 19 29.53 1000 10 16.0934 0 0
12:35 pm 12:35 Sunny 84 28.8 58 14.2 41 41 W 12 19 29.53 1000 10 16.0934 0 0
12:55 pm 12:55 Sunny 86 30 57 14 38 38 WNW 13 20 29.53 1000 10 16.0934 0 0
1:15 pm 13:15 Sunny 87 30.8 56 13.5 35 35 W 15 24 29.53 1000 10 16.0934 0 0
1:35 pm 13:35 Sunny 89 31.9 55 12.9 31 31 WNW 17 28 29.5 999 10 16.0934 0 0
1:55 pm 13:55 Sunny 91 32.7 54 12 28 28 W 16 26 29.5 999 10 16.0934 0 0
2:15 pm 14:15 Sunny 91 33 51 10.7 25 25 WNW 16 26 29.5 999 10 16.0934 0 0
2:35 pm 14:35 Sunny 91 33 51 10.4 25 25 WNW 18 30 29.5 999 10 16.0934 0 0
2:55 pm 14:55 Sunny 91 32.8 51 10.7 26 26 NW 18 30 29.5 999 10 16.0934 0 0
3:15 pm 15:15 Sunny 92 33.2 51 10.5 25 25 WNW 18 30 29.53 1000 10 16.0934 0 0
3:35 pm 15:35 Sunny 91 32.9 50 9.9 24 24 NW 15 24 29.53 1000 10 16.0934 0 0
3:55 pm 15:55 Sunny 92 33.1 48 8.7 22 22 WNW 17 28 29.53 1000 10 16.0934 0 0
4:15 pm 16:15 Sunny 91 33 47 8.5 22 22 NW 17 28 29.53 1000 10 16.0934 0 0
4:35 pm 16:35 Sunny 91 33 47 8.3 22 22 NW 20 31 29.56 1001 10 16.0934 0 0
4:55 pm 16:55 Sunny 91 32.8 47 8.5 22 22 NW 15 24 29.56 1001 10 16.0934 0 0
5:15 pm 17:15 Sunny 91 32.5 47 8.5 23 23 NW 13 20 29.59 1002 10 16.0934 0 0
5:35 pm 17:35 Sunny 81 27.3 56 13.1 42 42 N 31 50 29.65 1004 7 11.26538 0 0
5:55 pm 17:55 Sunny 76 24.6 54 12.4 47 47 N 33 54 29.74 1007 10 16.0934 0 0
6:15 pm 18:15 Sunny 72 22 53 11.6 52 52 N 29 46 29.77 1008 10 16.0934 0 0
6:35 pm 18:35 Sunny 68 20.2 51 10.7 55 55 N 26 43 29.83 1010 10 16.0934 0 0
6:55 pm 18:55 Sunny 66 18.9 50 9.9 56 56 N 26 43 29.85 1011 10 16.0934 0 0
7:15 pm 19:15 Sunny 64 17.9 49 9.6 59 59 N 21 33 29.91 1013 10 16.0934 0 0
7:35 pm 19:35 Clear 63 17.1 48 8.8 58 58 N 21 33 29.91 1013 10 16.0934 0 0
7:55 pm 19:55 Clear 62 16.5 46 7.6 56 56 N 23 37 29.94 1014 10 16.0934 0 0
8:15 pm 20:15 Clear 60 15.5 44 6.4 55 55 N 23 37 29.97 1015 10 16.0934 0 0
8:35 pm 20:35 Clear 59 15.1 43 6 55 55 NNE 20 31 30 1016 10 16.0934 0 0
8:55 pm 20:55 Clear 58 14.7 42 5.8 55 55 NNE 17 28 30 1016 10 16.0934 0 0
9:15 pm 21:15 Clear 58 14.4 42 5.7 56 56 N 18 30 30 1016 10 16.0934 0 0
9:35 pm 21:35 Clear 57 14.1 42 5.5 56 56 N 20 31 30 1016 10 16.0934 0 0
9:55 pm 21:55 Clear 57 13.8 42 5.3 57 57 N 23 37 30 1016 10 16.0934 0 0
10:15 pm 22:15 Clear 56 13.5 42 5.3 58 58 N 23 37 30.03 1017 10 16.0934 0 0
10:35 pm 22:35 Clear 55 12.9 42 5.5 61 61 NNE 21 33 30.06 1018 10 16.0934 0 0
10:55 pm 22:55 Clear 54 12.1 42 5.5 64 64 NNE 22 35 30.06 1018 10 16.0934 0 0
11:15 pm 23:15 Clear 53 11.5 39 3.9 60 60 NNE 26 43 30.09 1019 10 16.0934 0 0
11:35 pm 23:35 Clear 50 10 36 2.3 59 59 NNE 29 46 30.15 1021 10 16.0934 0 0
11:55 pm 23:55 Clear 49 9.3 37 2.7 64 64 N 25 41 30.15 1021 10 16.0934 0 0

Powered by AerisWeather